owner,sensor,date,latitude,longitude,air_pressure(mBar),qcFlag 
WAVCIS,ioos:station:WAVCIS:CSI03:1,2011-09-01T00:00:00Z,29.4412,-92.0613,1010.54,11111222 
WAVCIS,ioos:station:WAVCIS:CSI03:1,2011-09-01T01:00:00Z,29.4412,-92.0613,1011.0,11111222 
WAVCIS,ioos:station:WAVCIS:CSI03:1,2011-09-01T02:00:00Z,29.4412,-92.0613,1011.31,11111222 
WAVCIS,ioos:station:WAVCIS:CSI03:1,2011-09-01T03:00:00Z,29.4412,-92.0613,1011.54,11111222 
WAVCIS,ioos:station:WAVCIS:CSI03:1,2011-09-01T04:00:00Z,29.4412,-92.0613,1012.05,11111222 
WAVCIS,ioos:station:WAVCIS:CSI03:1,2011-09-01T05:00:00Z,29.4412,-92.0613,1012.02,11111222 
WAVCIS,ioos:station:WAVCIS:CSI03:1,2011-09-01T06:00:00Z,29.4412,-92.0613,1011.53,11111222 
WAVCIS,ioos:station:WAVCIS:CSI03:1,2011-09-01T07:00:00Z,29.4412,-92.0613,1010.98,11111222 
WAVCIS,ioos:station:WAVCIS:CSI03:1,2011-09-01T08:00:00Z,29.4412,-92.0613,1010.54,11111222 
WAVCIS,ioos:station:WAVCIS:CSI03:1,2011-09-01T09:00:00Z,29.4412,-92.0613,1010.5,11111222 
WAVCIS,ioos:station:WAVCIS:CSI03:1,2011-09-01T10:00:00Z,29.4412,-92.0613,1010.79,11111222 
WAVCIS,ioos:station:WAVCIS:CSI03:1,2011-09-01T11:00:00Z,29.4412,-92.0613,1011.06,11111222 
WAVCIS,ioos:station:WAVCIS:CSI03:1,2011-09-01T12:00:00Z,29.4412,-92.0613,1011.58,11111222 
WAVCIS,ioos:station:WAVCIS:CSI03:1,2011-09-01T13:00:00Z,29.4412,-92.0613,1012.02,11111222 
WAVCIS,ioos:station:WAVCIS:CSI03:1,2011-09-01T14:00:00Z,29.4412,-92.0613,1011.89,11111222 
WAVCIS,ioos:station:WAVCIS:CSI03:1,2011-09-01T15:00:00Z,29.4412,-92.0613,1012.19,11111222 
WAVCIS,ioos:station:WAVCIS:CSI03:1,2011-09-01T16:00:00Z,29.4412,-92.0613,1011.84,11111222 
WAVCIS,ioos:station:WAVCIS:CSI03:1,2011-09-01T17:00:00Z,29.4412,-92.0613,1011.42,11111222 
WAVCIS,ioos:station:WAVCIS:CSI03:1,2011-09-01T18:00:00Z,29.4412,-92.0613,1010.61,11111222 
WAVCIS,ioos:station:WAVCIS:CSI03:1,2011-09-01T19:00:00Z,29.4412,-92.0613,1010.31,11111222 
WAVCIS,ioos:station:WAVCIS:CSI03:1,2011-09-01T20:00:00Z,29.4412,-92.0613,1010.31,11111222 
WAVCIS,ioos:station:WAVCIS:CSI03:1,2011-09-01T21:00:00Z,29.4412,-92.0613,1009.66,11111222 
WAVCIS,ioos:station:WAVCIS:CSI03:1,2011-09-01T22:00:00Z,29.4412,-92.0613,1009.35,11111222 
WAVCIS,ioos:station:WAVCIS:CSI03:1,2011-09-01T23:00:00Z,29.4412,-92.0613,1009.31,11111222 
WAVCIS,ioos:station:WAVCIS:CSI03:1,2011-09-02T00:00:00Z,29.4412,-92.0613,1009.59,11111222 
WAVCIS,ioos:station:WAVCIS:CSI03:1,2011-09-02T01:00:00Z,29.4412,-92.0613,1009.76,11111222 
WAVCIS,ioos:station:WAVCIS:CSI03:1,2011-09-02T02:00:00Z,29.4412,-92.0613,1009.83,11111222 
WAVCIS,ioos:station:WAVCIS:CSI03:1,2011-09-02T03:00:00Z,29.4412,-92.0613,1009.8,11111222 
WAVCIS,ioos:station:WAVCIS:CSI03:1,2011-09-02T04:00:00Z,29.4412,-92.0613,1009.64,11111222 
WAVCIS,ioos:station:WAVCIS:CSI03:1,2011-09-02T05:00:00Z,29.4412,-92.0613,1008.87,11111222 
WAVCIS,ioos:station:WAVCIS:CSI03:1,2011-09-02T06:00:00Z,29.4412,-92.0613,1008.59,11111222 
WAVCIS,ioos:station:WAVCIS:CSI03:1,2011-09-02T07:00:00Z,29.4412,-92.0613,1008.17,11111222 
WAVCIS,ioos:station:WAVCIS:CSI03:1,2011-09-02T08:00:00Z,29.4412,-92.0613,1007.63,11111222 
WAVCIS,ioos:station:WAVCIS:CSI03:1,2011-09-02T09:00:00Z,29.4412,-92.0613,1007.33,11111222 
WAVCIS,ioos:station:WAVCIS:CSI03:1,2011-09-02T10:00:00Z,29.4412,-92.0613,1006.932,11111222 
WAVCIS,ioos:station:WAVCIS:CSI03:1,2011-09-02T11:00:00Z,29.4412,-92.0613,1006.89,11111222 
WAVCIS,ioos:station:WAVCIS:CSI03:1,2011-09-02T12:00:00Z,29.4412,-92.0613,1006.793,11111222 
WAVCIS,ioos:station:WAVCIS:CSI03:1,2011-09-02T13:00:00Z,29.4412,-92.0613,1007.04,11111222 
WAVCIS,ioos:station:WAVCIS:CSI03:1,2011-09-02T14:00:00Z,29.4412,-92.0613,1006.671,11111222 
WAVCIS,ioos:station:WAVCIS:CSI03:1,2011-09-02T15:00:00Z,29.4412,-92.0613,1007.07,11111222 
WAVCIS,ioos:station:WAVCIS:CSI03:1,2011-09-02T16:00:00Z,29.4412,-92.0613,1007.09,11111222 
WAVCIS,ioos:station:WAVCIS:CSI03:1,2011-09-02T17:00:00Z,29.4412,-92.0613,1006.994,11111222 
WAVCIS,ioos:station:WAVCIS:CSI03:1,2011-09-02T18:00:00Z,29.4412,-92.0613,1006.792,11111222 
WAVCIS,ioos:station:WAVCIS:CSI03:1,2011-09-02T19:00:00Z,29.4412,-92.0613,1005.782,11111222 
WAVCIS,ioos:station:WAVCIS:CSI03:1,2011-09-02T20:00:00Z,29.4412,-92.0613,1005.044,11111222 
WAVCIS,ioos:station:WAVCIS:CSI03:1,2011-09-02T21:00:00Z,29.4412,-92.0613,1004.806,11111222 
WAVCIS,ioos:station:WAVCIS:CSI03:1,2011-09-02T22:00:00Z,29.4412,-92.0613,1004.4,11111222 
WAVCIS,ioos:station:WAVCIS:CSI03:1,2011-09-02T23:00:00Z,29.4412,-92.0613,1004.122,11111222 
WAVCIS,ioos:station:WAVCIS:CSI03:1,2011-09-03T00:00:00Z,29.4412,-92.0613,1003.748,11111222 
WAVCIS,ioos:station:WAVCIS:CSI03:1,2011-09-03T01:00:00Z,29.4412,-92.0613,1002.964,11111222 
WAVCIS,ioos:station:WAVCIS:CSI03:1,2011-09-03T02:00:00Z,29.4412,-92.0613,1002.333,11111222 
WAVCIS,ioos:station:WAVCIS:CSI03:1,2011-09-03T03:00:00Z,29.4412,-92.0613,1001.358,11111222 
WAVCIS,ioos:station:WAVCIS:CSI03:1,2011-09-03T04:00:00Z,29.4412,-92.0613,1001.098,11111222 
WAVCIS,ioos:station:WAVCIS:CSI03:1,2011-09-03T05:00:00Z,29.4412,-92.0613,999.866,11111222 
WAVCIS,ioos:station:WAVCIS:CSI03:1,2011-09-03T06:00:00Z,29.4412,-92.0613,998.078,11111222 
WAVCIS,ioos:station:WAVCIS:CSI03:1,2011-09-03T07:00:00Z,29.4412,-92.0613,997.006,11111222 
WAVCIS,ioos:station:WAVCIS:CSI03:1,2011-09-03T08:00:00Z,29.4412,-92.0613,995.422,11111222 
WAVCIS,ioos:station:WAVCIS:CSI03:1,2011-09-03T09:00:00Z,29.4412,-92.0613,993.815,11111222 
WAVCIS,ioos:station:WAVCIS:CSI03:1,2011-09-03T10:00:00Z,29.4412,-92.0613,992.74,11111222 
WAVCIS,ioos:station:WAVCIS:CSI03:1,2011-09-03T11:00:00Z,29.4412,-92.0613,991.72,11111222 
WAVCIS,ioos:station:WAVCIS:CSI03:1,2011-09-03T12:00:00Z,29.4412,-92.0613,991.78,11111222 
WAVCIS,ioos:station:WAVCIS:CSI03:1,2011-09-03T13:00:00Z,29.4412,-92.0613,991.77,11111222 
WAVCIS,ioos:station:WAVCIS:CSI03:1,2011-09-03T14:00:00Z,29.4412,-92.0613,990.93,11111222 
WAVCIS,ioos:station:WAVCIS:CSI03:1,2011-09-03T15:00:00Z,29.4412,-92.0613,988.81,11111222 
WAVCIS,ioos:station:WAVCIS:CSI03:1,2011-09-03T16:00:00Z,29.4412,-92.0613,988.91,11111222 
WAVCIS,ioos:station:WAVCIS:CSI03:1,2011-09-03T17:00:00Z,29.4412,-92.0613,989.36,11111222 
WAVCIS,ioos:station:WAVCIS:CSI03:1,2011-09-03T18:00:00Z,29.4412,-92.0613,988.69,11111222 
WAVCIS,ioos:station:WAVCIS:CSI03:1,2011-09-03T19:00:00Z,29.4412,-92.0613,987.73,11111222 
WAVCIS,ioos:station:WAVCIS:CSI03:1,2011-09-03T20:00:00Z,29.4412,-92.0613,985.41,11111222 
WAVCIS,ioos:station:WAVCIS:CSI03:1,2011-09-03T21:00:00Z,29.4412,-92.0613,987.05,11111222 
WAVCIS,ioos:station:WAVCIS:CSI03:1,2011-09-03T22:00:00Z,29.4412,-92.0613,987.97,11111222 
WAVCIS,ioos:station:WAVCIS:CSI03:1,2011-09-03T23:00:00Z,29.4412,-92.0613,988.67,11111222 
WAVCIS,ioos:station:WAVCIS:CSI03:1,2011-09-04T00:00:00Z,29.4412,-92.0613,988.26,11111222 
WAVCIS,ioos:station:WAVCIS:CSI03:1,2011-09-04T01:00:00Z,29.4412,-92.0613,987.98,11111222 
WAVCIS,ioos:station:WAVCIS:CSI03:1,2011-09-04T02:00:00Z,29.4412,-92.0613,988.35,11111222 
WAVCIS,ioos:station:WAVCIS:CSI03:1,2011-09-04T03:00:00Z,29.4412,-92.0613,988.79,11111222 
WAVCIS,ioos:station:WAVCIS:CSI03:1,2011-09-04T04:00:00Z,29.4412,-92.0613,988.17,11111222 
WAVCIS,ioos:station:WAVCIS:CSI03:1,2011-09-04T05:00:00Z,29.4412,-92.0613,987.6,11111222 
WAVCIS,ioos:station:WAVCIS:CSI03:1,2011-09-04T06:00:00Z,29.4412,-92.0613,987.94,11111222 
WAVCIS,ioos:station:WAVCIS:CSI03:1,2011-09-04T07:00:00Z,29.4412,-92.0613,987.74,11111222 
WAVCIS,ioos:station:WAVCIS:CSI03:1,2011-09-04T08:00:00Z,29.4412,-92.0613,986.28,11111222 
WAVCIS,ioos:station:WAVCIS:CSI03:1,2011-09-04T09:00:00Z,29.4412,-92.0613,985.29,11111222 
WAVCIS,ioos:station:WAVCIS:CSI03:1,2011-09-04T10:00:00Z,29.4412,-92.0613,983.95,11111222 
WAVCIS,ioos:station:WAVCIS:CSI03:1,2011-09-04T11:00:00Z,29.4412,-92.0613,984.55,11111222 
WAVCIS,ioos:station:WAVCIS:CSI03:1,2011-09-04T12:00:00Z,29.4412,-92.0613,986.76,11111222 
WAVCIS,ioos:station:WAVCIS:CSI03:1,2011-09-04T13:00:00Z,29.4412,-92.0613,988.17,11111222 
WAVCIS,ioos:station:WAVCIS:CSI03:1,2011-09-04T14:00:00Z,29.4412,-92.0613,990.01,11111222 
WAVCIS,ioos:station:WAVCIS:CSI03:1,2011-09-04T15:00:00Z,29.4412,-92.0613,991.02,11111222 
WAVCIS,ioos:station:WAVCIS:CSI03:1,2011-09-04T16:00:00Z,29.4412,-92.0613,992.2,11111222 
WAVCIS,ioos:station:WAVCIS:CSI03:1,2011-09-04T17:00:00Z,29.4412,-92.0613,993.194,11111222 
WAVCIS,ioos:station:WAVCIS:CSI03:1,2011-09-04T18:00:00Z,29.4412,-92.0613,993.82,11111222 
WAVCIS,ioos:station:WAVCIS:CSI03:1,2011-09-04T19:00:00Z,29.4412,-92.0613,993.787,11111222 
WAVCIS,ioos:station:WAVCIS:CSI03:1,2011-09-04T20:00:00Z,29.4412,-92.0613,993.955,11111222 
WAVCIS,ioos:station:WAVCIS:CSI03:1,2011-09-04T21:00:00Z,29.4412,-92.0613,993.907,11111222 
WAVCIS,ioos:station:WAVCIS:CSI03:1,2011-09-04T22:00:00Z,29.4412,-92.0613,994.094,11111222 
WAVCIS,ioos:station:WAVCIS:CSI03:1,2011-09-04T23:00:00Z,29.4412,-92.0613,994.718,11111222 
WAVCIS,ioos:station:WAVCIS:CSI03:1,2011-09-05T00:00:00Z,29.4412,-92.0613,994.968,11111222 
WAVCIS,ioos:station:WAVCIS:CSI03:1,2011-09-05T01:00:00Z,29.4412,-92.0613,994.878,11111222 
WAVCIS,ioos:station:WAVCIS:CSI03:1,2011-09-05T02:00:00Z,29.4412,-92.0613,995.059,11111222 
WAVCIS,ioos:station:WAVCIS:CSI03:1,2011-09-05T03:00:00Z,29.4412,-92.0613,995.432,11111222 
WAVCIS,ioos:station:WAVCIS:CSI03:1,2011-09-05T04:00:00Z,29.4412,-92.0613,995.34,11111222 
WAVCIS,ioos:station:WAVCIS:CSI03:1,2011-09-05T05:00:00Z,29.4412,-92.0613,995.009,11111222 
WAVCIS,ioos:station:WAVCIS:CSI03:1,2011-09-05T06:00:00Z,29.4412,-92.0613,994.776,11111222 
WAVCIS,ioos:station:WAVCIS:CSI03:1,2011-09-05T07:00:00Z,29.4412,-92.0613,995.184,11111222 
WAVCIS,ioos:station:WAVCIS:CSI03:1,2011-09-05T08:00:00Z,29.4412,-92.0613,995.169,11111222 
WAVCIS,ioos:station:WAVCIS:CSI03:1,2011-09-05T09:00:00Z,29.4412,-92.0613,995.624,11111222 
WAVCIS,ioos:station:WAVCIS:CSI03:1,2011-09-05T10:00:00Z,29.4412,-92.0613,996.66,11111222 
WAVCIS,ioos:station:WAVCIS:CSI03:1,2011-09-05T11:00:00Z,29.4412,-92.0613,997.65,11111222 
WAVCIS,ioos:station:WAVCIS:CSI03:1,2011-09-05T12:00:00Z,29.4412,-92.0613,999.36,11111222 
WAVCIS,ioos:station:WAVCIS:CSI03:1,2011-09-05T13:00:00Z,29.4412,-92.0613,1000.831,11111222 
WAVCIS,ioos:station:WAVCIS:CSI03:1,2011-09-05T14:00:00Z,29.4412,-92.0613,1001.423,11111222 
WAVCIS,ioos:station:WAVCIS:CSI03:1,2011-09-05T15:00:00Z,29.4412,-92.0613,1002.758,11111222 
WAVCIS,ioos:station:WAVCIS:CSI03:1,2011-09-05T16:00:00Z,29.4412,-92.0613,1004.232,11111222 
WAVCIS,ioos:station:WAVCIS:CSI03:1,2011-09-05T17:00:00Z,29.4412,-92.0613,1004.824,11111222 
WAVCIS,ioos:station:WAVCIS:CSI03:1,2011-09-05T18:00:00Z,29.4412,-92.0613,1004.861,11111222 
WAVCIS,ioos:station:WAVCIS:CSI03:1,2011-09-05T19:00:00Z,29.4412,-92.0613,1004.73,11111222 
WAVCIS,ioos:station:WAVCIS:CSI03:1,2011-09-05T20:00:00Z,29.4412,-92.0613,1004.803,11111222 
WAVCIS,ioos:station:WAVCIS:CSI03:1,2011-09-05T21:00:00Z,29.4412,-92.0613,1005.148,11111222 
WAVCIS,ioos:station:WAVCIS:CSI03:1,2011-09-05T22:00:00Z,29.4412,-92.0613,1005.676,11111222 
WAVCIS,ioos:station:WAVCIS:CSI03:1,2011-09-05T23:00:00Z,29.4412,-92.0613,1006.621,11111222 
WAVCIS,ioos:station:WAVCIS:CSI03:1,2011-09-06T00:00:00Z,29.4412,-92.0613,1007.13,11111222 
WAVCIS,ioos:station:WAVCIS:CSI03:1,2011-09-06T01:00:00Z,29.4412,-92.0613,1008.04,11111222 
WAVCIS,ioos:station:WAVCIS:CSI03:1,2011-09-06T02:00:00Z,29.4412,-92.0613,1008.75,11111222 
WAVCIS,ioos:station:WAVCIS:CSI03:1,2011-09-06T03:00:00Z,29.4412,-92.0613,1009.58,11111222 
WAVCIS,ioos:station:WAVCIS:CSI03:1,2011-09-06T04:00:00Z,29.4412,-92.0613,1010.03,11111222 
WAVCIS,ioos:station:WAVCIS:CSI03:1,2011-09-06T05:00:00Z,29.4412,-92.0613,1010.48,11111222 
WAVCIS,ioos:station:WAVCIS:CSI03:1,2011-09-06T06:00:00Z,29.4412,-92.0613,1010.65,11111222 
WAVCIS,ioos:station:WAVCIS:CSI03:1,2011-09-06T07:00:00Z,29.4412,-92.0613,1010.57,11111222 
WAVCIS,ioos:station:WAVCIS:CSI03:1,2011-09-06T08:00:00Z,29.4412,-92.0613,1010.67,11111222 
WAVCIS,ioos:station:WAVCIS:CSI03:1,2011-09-06T09:00:00Z,29.4412,-92.0613,1010.92,11111222 
WAVCIS,ioos:station:WAVCIS:CSI03:1,2011-09-06T10:00:00Z,29.4412,-92.0613,1011.02,11111222 
WAVCIS,ioos:station:WAVCIS:CSI03:1,2011-09-06T11:00:00Z,29.4412,-92.0613,1011.55,11111222 
WAVCIS,ioos:station:WAVCIS:CSI03:1,2011-09-06T12:00:00Z,29.4412,-92.0613,1011.99,11111222 
WAVCIS,ioos:station:WAVCIS:CSI03:1,2011-09-06T13:00:00Z,29.4412,-92.0613,1012.67,11111222 
WAVCIS,ioos:station:WAVCIS:CSI03:1,2011-09-06T14:00:00Z,29.4412,-92.0613,1013.19,11111222 
WAVCIS,ioos:station:WAVCIS:CSI03:1,2011-09-06T15:00:00Z,29.4412,-92.0613,1013.51,11111222 
WAVCIS,ioos:station:WAVCIS:CSI03:1,2011-09-06T16:00:00Z,29.4412,-92.0613,1013.85,11111222 
WAVCIS,ioos:station:WAVCIS:CSI03:1,2011-09-06T17:00:00Z,29.4412,-92.0613,1013.46,11111222 
WAVCIS,ioos:station:WAVCIS:CSI03:1,2011-09-07T06:00:00Z,29.4412,-92.0613,1013.75,11111222 
WAVCIS,ioos:station:WAVCIS:CSI03:1,2011-09-07T07:00:00Z,29.4412,-92.0613,1013.67,11111222 
WAVCIS,ioos:station:WAVCIS:CSI03:1,2011-09-07T08:00:00Z,29.4412,-92.0613,1013.65,11111222 
WAVCIS,ioos:station:WAVCIS:CSI03:1,2011-09-07T09:00:00Z,29.4412,-92.0613,1013.5,11111222 
WAVCIS,ioos:station:WAVCIS:CSI03:1,2011-09-07T10:00:00Z,29.4412,-92.0613,1013.74,11111222 
WAVCIS,ioos:station:WAVCIS:CSI03:1,2011-09-07T11:00:00Z,29.4412,-92.0613,1014.07,11111222 
WAVCIS,ioos:station:WAVCIS:CSI03:1,2011-09-07T12:00:00Z,29.4412,-92.0613,1014.48,11111222 
WAVCIS,ioos:station:WAVCIS:CSI03:1,2011-09-07T13:00:00Z,29.4412,-92.0613,1015.21,11111222 
WAVCIS,ioos:station:WAVCIS:CSI03:1,2011-09-07T14:00:00Z,29.4412,-92.0613,1015.74,11111222 
WAVCIS,ioos:station:WAVCIS:CSI03:1,2011-09-07T15:00:00Z,29.4412,-92.0613,1016.13,11111222 
WAVCIS,ioos:station:WAVCIS:CSI03:1,2011-09-07T16:00:00Z,29.4412,-92.0613,1016.2,11111222 
WAVCIS,ioos:station:WAVCIS:CSI03:1,2011-09-07T17:00:00Z,29.4412,-92.0613,1015.77,11111222 
WAVCIS,ioos:station:WAVCIS:CSI03:1,2011-09-07T18:00:00Z,29.4412,-92.0613,1015.06,11111222 
WAVCIS,ioos:station:WAVCIS:CSI03:1,2011-09-07T19:00:00Z,29.4412,-92.0613,1014.43,11111222 
WAVCIS,ioos:station:WAVCIS:CSI03:1,2011-09-07T20:00:00Z,29.4412,-92.0613,1013.98,11111222 
WAVCIS,ioos:station:WAVCIS:CSI03:1,2011-09-07T21:00:00Z,29.4412,-92.0613,1013.58,11111222 
WAVCIS,ioos:station:WAVCIS:CSI03:1,2011-09-07T22:00:00Z,29.4412,-92.0613,1013.34,11111222 
WAVCIS,ioos:station:WAVCIS:CSI03:1,2011-09-07T23:00:00Z,29.4412,-92.0613,1013.51,11111222 
WAVCIS,ioos:station:WAVCIS:CSI03:1,2011-09-08T00:00:00Z,29.4412,-92.0613,1013.77,11111222 
WAVCIS,ioos:station:WAVCIS:CSI03:1,2011-09-08T01:00:00Z,29.4412,-92.0613,1014.11,11111222 
WAVCIS,ioos:station:WAVCIS:CSI03:1,2011-09-08T02:00:00Z,29.4412,-92.0613,1014.8,11111222 
WAVCIS,ioos:station:WAVCIS:CSI03:1,2011-09-08T03:00:00Z,29.4412,-92.0613,1015.39,11111222 
WAVCIS,ioos:station:WAVCIS:CSI03:1,2011-09-08T04:00:00Z,29.4412,-92.0613,1015.33,11111222 
WAVCIS,ioos:station:WAVCIS:CSI03:1,2011-09-08T05:00:00Z,29.4412,-92.0613,1015.08,11111222 
WAVCIS,ioos:station:WAVCIS:CSI03:1,2011-09-08T06:00:00Z,29.4412,-92.0613,1014.68,11111222 
WAVCIS,ioos:station:WAVCIS:CSI03:1,2011-09-08T07:00:00Z,29.4412,-92.0613,1014.54,11111222 
WAVCIS,ioos:station:WAVCIS:CSI03:1,2011-09-08T08:00:00Z,29.4412,-92.0613,1014.43,11111222 
WAVCIS,ioos:station:WAVCIS:CSI03:1,2011-09-08T09:00:00Z,29.4412,-92.0613,1014.33,11111222 
WAVCIS,ioos:station:WAVCIS:CSI03:1,2011-09-08T10:00:00Z,29.4412,-92.0613,1014.54,11111222 
WAVCIS,ioos:station:WAVCIS:CSI03:1,2011-09-08T11:00:00Z,29.4412,-92.0613,1014.91,11111222 
WAVCIS,ioos:station:WAVCIS:CSI03:1,2011-09-08T12:00:00Z,29.4412,-92.0613,1014.94,11111222 
WAVCIS,ioos:station:WAVCIS:CSI03:1,2011-09-08T13:00:00Z,29.4412,-92.0613,1015.24,11111222 
WAVCIS,ioos:station:WAVCIS:CSI03:1,2011-09-08T14:00:00Z,29.4412,-92.0613,1015.72,11111222 
WAVCIS,ioos:station:WAVCIS:CSI03:1,2011-09-08T15:00:00Z,29.4412,-92.0613,1016.14,11111222 
WAVCIS,ioos:station:WAVCIS:CSI03:1,2011-09-08T16:00:00Z,29.4412,-92.0613,1016.06,11111222 
WAVCIS,ioos:station:WAVCIS:CSI03:1,2011-09-08T17:00:00Z,29.4412,-92.0613,1015.87,11111222 
WAVCIS,ioos:station:WAVCIS:CSI03:1,2011-09-08T18:00:00Z,29.4412,-92.0613,1015.31,11111222 
WAVCIS,ioos:station:WAVCIS:CSI03:1,2011-09-08T19:00:00Z,29.4412,-92.0613,1014.53,11111222 
WAVCIS,ioos:station:WAVCIS:CSI03:1,2011-09-08T20:00:00Z,29.4412,-92.0613,1013.62,11111222 
WAVCIS,ioos:station:WAVCIS:CSI03:1,2011-09-08T21:00:00Z,29.4412,-92.0613,1012.92,11111222 
WAVCIS,ioos:station:WAVCIS:CSI03:1,2011-09-08T22:00:00Z,29.4412,-92.0613,1012.43,11111222 
WAVCIS,ioos:station:WAVCIS:CSI03:1,2011-09-08T23:00:00Z,29.4412,-92.0613,1012.32,11111222 
WAVCIS,ioos:station:WAVCIS:CSI03:1,2011-09-09T00:00:00Z,29.4412,-92.0613,1012.31,11111222 
WAVCIS,ioos:station:WAVCIS:CSI03:1,2011-09-09T01:00:00Z,29.4412,-92.0613,1012.69,11111222 
WAVCIS,ioos:station:WAVCIS:CSI03:1,2011-09-09T02:00:00Z,29.4412,-92.0613,1013.18,11111222 
WAVCIS,ioos:station:WAVCIS:CSI03:1,2011-09-09T03:00:00Z,29.4412,-92.0613,1013.66,11111222 
WAVCIS,ioos:station:WAVCIS:CSI03:1,2011-09-09T04:00:00Z,29.4412,-92.0613,1013.83,11111222 
WAVCIS,ioos:station:WAVCIS:CSI03:1,2011-09-09T05:00:00Z,29.4412,-92.0613,1013.59,11111222 
WAVCIS,ioos:station:WAVCIS:CSI03:1,2011-09-09T06:00:00Z,29.4412,-92.0613,1013.11,11111222 
WAVCIS,ioos:station:WAVCIS:CSI03:1,2011-09-09T07:00:00Z,29.4412,-92.0613,1013.04,11111222 
WAVCIS,ioos:station:WAVCIS:CSI03:1,2011-09-09T08:00:00Z,29.4412,-92.0613,1012.58,11111222 
WAVCIS,ioos:station:WAVCIS:CSI03:1,2011-09-09T09:00:00Z,29.4412,-92.0613,1012.42,11111222 
WAVCIS,ioos:station:WAVCIS:CSI03:1,2011-09-09T10:00:00Z,29.4412,-92.0613,1012.44,11111222 
WAVCIS,ioos:station:WAVCIS:CSI03:1,2011-09-09T11:00:00Z,29.4412,-92.0613,1012.58,11111222 
WAVCIS,ioos:station:WAVCIS:CSI03:1,2011-09-09T12:00:00Z,29.4412,-92.0613,1013.0,11111222 
WAVCIS,ioos:station:WAVCIS:CSI03:1,2011-09-09T13:00:00Z,29.4412,-92.0613,1013.44,11111222 
WAVCIS,ioos:station:WAVCIS:CSI03:1,2011-09-09T14:00:00Z,29.4412,-92.0613,1013.8,11111222 
WAVCIS,ioos:station:WAVCIS:CSI03:1,2011-09-09T15:00:00Z,29.4412,-92.0613,1014.48,11111222 
WAVCIS,ioos:station:WAVCIS:CSI03:1,2011-09-09T16:00:00Z,29.4412,-92.0613,1014.9,11111222 
WAVCIS,ioos:station:WAVCIS:CSI03:1,2011-09-09T17:00:00Z,29.4412,-92.0613,1014.86,11111222 
WAVCIS,ioos:station:WAVCIS:CSI03:1,2011-09-09T18:00:00Z,29.4412,-92.0613,1014.2,11111222 
WAVCIS,ioos:station:WAVCIS:CSI03:1,2011-09-09T19:00:00Z,29.4412,-92.0613,1013.79,11111222 
WAVCIS,ioos:station:WAVCIS:CSI03:1,2011-09-09T20:00:00Z,29.4412,-92.0613,1013.02,11111222 
WAVCIS,ioos:station:WAVCIS:CSI03:1,2011-09-09T21:00:00Z,29.4412,-92.0613,1012.24,11111222 
WAVCIS,ioos:station:WAVCIS:CSI03:1,2011-09-09T22:00:00Z,29.4412,-92.0613,1011.74,11111222 
WAVCIS,ioos:station:WAVCIS:CSI03:1,2011-09-09T23:00:00Z,29.4412,-92.0613,1011.71,11111222 
WAVCIS,ioos:station:WAVCIS:CSI03:1,2011-09-10T00:00:00Z,29.4412,-92.0613,1011.8,11111222 
WAVCIS,ioos:station:WAVCIS:CSI03:1,2011-09-10T01:00:00Z,29.4412,-92.0613,1012.0,11111222 
WAVCIS,ioos:station:WAVCIS:CSI03:1,2011-09-10T02:00:00Z,29.4412,-92.0613,1012.43,11111222 
WAVCIS,ioos:station:WAVCIS:CSI03:1,2011-09-10T03:00:00Z,29.4412,-92.0613,1013.02,11111222 
WAVCIS,ioos:station:WAVCIS:CSI03:1,2011-09-10T04:00:00Z,29.4412,-92.0613,1013.05,11111222 
WAVCIS,ioos:station:WAVCIS:CSI03:1,2011-09-10T05:00:00Z,29.4412,-92.0613,1012.77,11111222 
WAVCIS,ioos:station:WAVCIS:CSI03:1,2011-09-10T06:00:00Z,29.4412,-92.0613,1012.68,11111222 
WAVCIS,ioos:station:WAVCIS:CSI03:1,2011-09-10T07:00:00Z,29.4412,-92.0613,1012.75,11111222 
WAVCIS,ioos:station:WAVCIS:CSI03:1,2011-09-10T08:00:00Z,29.4412,-92.0613,1012.85,11111222 
WAVCIS,ioos:station:WAVCIS:CSI03:1,2011-09-10T09:00:00Z,29.4412,-92.0613,1013.08,11111222 
WAVCIS,ioos:station:WAVCIS:CSI03:1,2011-09-10T10:00:00Z,29.4412,-92.0613,1013.12,11111222 
WAVCIS,ioos:station:WAVCIS:CSI03:1,2011-09-10T11:00:00Z,29.4412,-92.0613,1013.34,11111222 
WAVCIS,ioos:station:WAVCIS:CSI03:1,2011-09-10T12:00:00Z,29.4412,-92.0613,1013.9,11111222 
WAVCIS,ioos:station:WAVCIS:CSI03:1,2011-09-10T13:00:00Z,29.4412,-92.0613,1014.56,11111222 
WAVCIS,ioos:station:WAVCIS:CSI03:1,2011-09-10T14:00:00Z,29.4412,-92.0613,1014.87,11111222 
WAVCIS,ioos:station:WAVCIS:CSI03:1,2011-09-10T15:00:00Z,29.4412,-92.0613,1015.61,11111222 
WAVCIS,ioos:station:WAVCIS:CSI03:1,2011-09-10T16:00:00Z,29.4412,-92.0613,1016.02,11111222 
WAVCIS,ioos:station:WAVCIS:CSI03:1,2011-09-10T17:00:00Z,29.4412,-92.0613,1015.85,11111222 
WAVCIS,ioos:station:WAVCIS:CSI03:1,2011-09-10T18:00:00Z,29.4412,-92.0613,1015.38,11111222 
WAVCIS,ioos:station:WAVCIS:CSI03:1,2011-09-10T19:00:00Z,29.4412,-92.0613,1014.72,11111222 
WAVCIS,ioos:station:WAVCIS:CSI03:1,2011-09-10T20:00:00Z,29.4412,-92.0613,1014.08,11111222 
WAVCIS,ioos:station:WAVCIS:CSI03:1,2011-09-10T21:00:00Z,29.4412,-92.0613,1013.8,11111222 
WAVCIS,ioos:station:WAVCIS:CSI03:1,2011-09-10T22:00:00Z,29.4412,-92.0613,1013.85,11111222 
WAVCIS,ioos:station:WAVCIS:CSI03:1,2011-09-10T23:00:00Z,29.4412,-92.0613,1013.96,11111222 
WAVCIS,ioos:station:WAVCIS:CSI03:1,2011-09-11T00:00:00Z,29.4412,-92.0613,1013.82,11111222 
WAVCIS,ioos:station:WAVCIS:CSI03:1,2011-09-11T01:00:00Z,29.4412,-92.0613,1014.04,11111222 
WAVCIS,ioos:station:WAVCIS:CSI03:1,2011-09-11T02:00:00Z,29.4412,-92.0613,1014.33,11111222 
WAVCIS,ioos:station:WAVCIS:CSI03:1,2011-09-11T03:00:00Z,29.4412,-92.0613,1014.88,11111222 
WAVCIS,ioos:station:WAVCIS:CSI03:1,2011-09-11T04:00:00Z,29.4412,-92.0613,1015.24,11111222 
WAVCIS,ioos:station:WAVCIS:CSI03:1,2011-09-11T05:00:00Z,29.4412,-92.0613,1015.15,11111222 
WAVCIS,ioos:station:WAVCIS:CSI03:1,2011-09-11T06:00:00Z,29.4412,-92.0613,1015.17,11111222 
WAVCIS,ioos:station:WAVCIS:CSI03:1,2011-09-11T07:00:00Z,29.4412,-92.0613,1014.85,11111222 
WAVCIS,ioos:station:WAVCIS:CSI03:1,2011-09-11T08:00:00Z,29.4412,-92.0613,1014.71,11111222 
WAVCIS,ioos:station:WAVCIS:CSI03:1,2011-09-11T09:00:00Z,29.4412,-92.0613,1014.65,11111222 
WAVCIS,ioos:station:WAVCIS:CSI03:1,2011-09-11T10:00:00Z,29.4412,-92.0613,1014.86,11111222 
WAVCIS,ioos:station:WAVCIS:CSI03:1,2011-09-11T11:00:00Z,29.4412,-92.0613,1015.24,11111222 
WAVCIS,ioos:station:WAVCIS:CSI03:1,2011-09-11T12:00:00Z,29.4412,-92.0613,1015.8,11111222 
WAVCIS,ioos:station:WAVCIS:CSI03:1,2011-09-11T13:00:00Z,29.4412,-92.0613,1016.73,11111222 
WAVCIS,ioos:station:WAVCIS:CSI03:1,2011-09-11T14:00:00Z,29.4412,-92.0613,1017.38,11111222 
WAVCIS,ioos:station:WAVCIS:CSI03:1,2011-09-11T15:00:00Z,29.4412,-92.0613,1017.94,11111222 
WAVCIS,ioos:station:WAVCIS:CSI03:1,2011-09-11T16:00:00Z,29.4412,-92.0613,1018.41,11111222 
WAVCIS,ioos:station:WAVCIS:CSI03:1,2011-09-11T17:00:00Z,29.4412,-92.0613,1018.29,11111222 
WAVCIS,ioos:station:WAVCIS:CSI03:1,2011-09-11T18:00:00Z,29.4412,-92.0613,1017.89,11111222 
WAVCIS,ioos:station:WAVCIS:CSI03:1,2011-09-11T19:00:00Z,29.4412,-92.0613,1017.31,11111222 
WAVCIS,ioos:station:WAVCIS:CSI03:1,2011-09-11T20:00:00Z,29.4412,-92.0613,1016.53,11111222 
WAVCIS,ioos:station:WAVCIS:CSI03:1,2011-09-11T21:00:00Z,29.4412,-92.0613,1015.92,11111222 
WAVCIS,ioos:station:WAVCIS:CSI03:1,2011-09-11T22:00:00Z,29.4412,-92.0613,1015.7,11111222 
WAVCIS,ioos:station:WAVCIS:CSI03:1,2011-09-11T23:00:00Z,29.4412,-92.0613,1015.7,11111222 
WAVCIS,ioos:station:WAVCIS:CSI03:1,2011-09-12T00:00:00Z,29.4412,-92.0613,1015.61,11111222 
WAVCIS,ioos:station:WAVCIS:CSI03:1,2011-09-12T01:00:00Z,29.4412,-92.0613,1015.6,11111222 
WAVCIS,ioos:station:WAVCIS:CSI03:1,2011-09-12T02:00:00Z,29.4412,-92.0613,1015.9,11111222 
WAVCIS,ioos:station:WAVCIS:CSI03:1,2011-09-12T03:00:00Z,29.4412,-92.0613,1016.51,11111222 
WAVCIS,ioos:station:WAVCIS:CSI03:1,2011-09-12T04:00:00Z,29.4412,-92.0613,1016.71,11111222 
WAVCIS,ioos:station:WAVCIS:CSI03:1,2011-09-12T05:00:00Z,29.4412,-92.0613,1016.91,11111222 
WAVCIS,ioos:station:WAVCIS:CSI03:1,2011-09-12T06:00:00Z,29.4412,-92.0613,1016.65,11111222 
WAVCIS,ioos:station:WAVCIS:CSI03:1,2011-09-12T07:00:00Z,29.4412,-92.0613,1016.55,11111222 
WAVCIS,ioos:station:WAVCIS:CSI03:1,2011-09-12T08:00:00Z,29.4412,-92.0613,1016.54,11111222 
WAVCIS,ioos:station:WAVCIS:CSI03:1,2011-09-12T09:00:00Z,29.4412,-92.0613,1016.68,11111222 
WAVCIS,ioos:station:WAVCIS:CSI03:1,2011-09-12T10:00:00Z,29.4412,-92.0613,1016.82,11111222 